Starlink 32709

operational
NORAD ID: 62439 Int'l Des: 2024-251 Owner: SPXS Country: US Constellation: starlink
LEOCIRCULAR

Starlink 32709について

説明を読み込み中...

リアルタイム位置

3D地球を読み込み中...

次回通過

高度履歴

Altitude vs Time

uPlot chart will show altitude changes over time

軌道要素

1 62439U 24251H 25352.30463378 .00018655 00000-0 64022-3 0 9991
2 62439 53.1587 353.6417 0001596 90.8323 269.2860 15.30207705 55485
Epoch: Dec 18, 2025 • Age: 5 hours

現在のステータス

高度 476.5 km
速度 7.63 km/s
衛星直下点 32.01°N, 131.78°W
打ち上げ日 Dec 29, 2024
運用期間 0.9 years
タイプ internet

技術仕様

分類 Payload
質量 730.00 kg
乾燥質量 700.00 kg
総質量 730.00 kg
長さ 0.30 m
直径 4.10 m
スパン 29.00 m
形状 Box + pan
製造者 SPXS
バスタイプ Starlink V2M
フェーズステータス In Orbit
所有者/国 SPXS/US

大規模コンステレーション

Loading constellations...